Time,TemperatureF,DewpointF,PressureIn,WindDirection,WindDirectionDegrees,WindSpeedMPH,WindSpeedGustMPH,Humidity,HourlyPrecipIn,Conditions,Clouds,dailyrainin,SoftwareType,DateUTC
2013-04-24 00:02:00,54.0,43.7,30.02,North,360,3.3,3.5,68,0.00,CLR,,0.00,WeatherDisplay:10.37,2013-04-24 05:02:00,
2013-04-24 00:07:00,53.7,43.0,30.02,NNW,348,3.9,6.9,67,0.00,CLR,,0.00,WeatherDisplay:10.37,2013-04-24 05:07:00,
2013-04-24 00:12:00,53.5,42.8,30.02,NNW,330,2.7,2.7,67,0.00,CLR,,0.00,WeatherDisplay:10.37,2013-04-24 05:12:00,
2013-04-24 00:17:00,53.3,42.6,30.03,NNE,21,3.6,7.0,67,0.00,CLR,,0.00,WeatherDisplay:10.37,2013-04-24 05:17:00,
2013-04-24 00:22:00,53.1,42.4,30.03,NNE,14,3.6,5.8,67,0.00,CLR,,0.00,WeatherDisplay:10.37,2013-04-24 05:22:00,
2013-04-24 00:27:00,52.9,42.6,30.03,NNW,348,5.4,5.8,68,0.00,CLR,,0.00,WeatherDisplay:10.37,2013-04-24 05:27:00,
2013-04-24 00:32:00,52.7,42.8,30.03,North,355,2.3,3.5,69,0.00,CLR,,0.00,WeatherDisplay:10.37,2013-04-24 05:32:00,
2013-04-24 00:37:00,52.6,42.3,30.03,NNW,333,4.9,4.9,68,0.00,CLR,,0.00,WeatherDisplay:10.37,2013-04-24 05:37:00,
2013-04-24 00:42:00,52.5,42.6,30.03,North,355,1.9,5.8,69,0.00,CLR,,0.00,WeatherDisplay:10.37,2013-04-24 05:42:00,
2013-04-24 00:47:00,52.4,42.5,30.03,NNW,338,3.0,3.5,69,0.00,CLR,,0.00,WeatherDisplay:10.37,2013-04-24 05:47:00,
2013-04-24 00:52:00,52.2,42.3,30.04,North,355,2.5,5.8,69,0.00,CLR,,0.00,WeatherDisplay:10.37,2013-04-24 05:52:00,
2013-04-24 00:57:00,52.1,42.6,30.04,NNW,348,0.9,2.3,70,0.00,CLR,,0.00,WeatherDisplay:10.37,2013-04-24 05:57:00,
2013-04-24 01:02:00,52.0,42.5,30.04,North,360,1.5,4.6,70,0.00,CLR,,0.00,WeatherDisplay:10.37,2013-04-24 06:02:00,
2013-04-24 01:07:00,51.8,42.3,30.04,NNW,329,3.0,6.0,70,0.00,CLR,,0.00,WeatherDisplay:10.37,2013-04-24 06:07:00,
2013-04-24 01:12:00,51.7,42.2,30.05,North,355,2.7,9.0,70,0.00,CLR,,0.00,WeatherDisplay:10.37,2013-04-24 06:12:00,
2013-04-24 01:17:00,51.5,42.0,30.04,North,350,1.2,5.8,70,0.00,CLR,,0.00,WeatherDisplay:10.37,2013-04-24 06:17:00,
2013-04-24 01:22:00,51.3,41.8,30.05,North,5,3.7,10.4,70,0.00,CLR,,0.00,WeatherDisplay:10.37,2013-04-24 06:22:00,
2013-04-24 01:27:00,51.2,41.7,30.05,WNW,289,4.6,4.6,70,0.00,CLR,,0.00,WeatherDisplay:10.37,2013-04-24 06:27:00,
2013-04-24 01:32:00,51.0,41.9,30.05,North,355,3.7,4.6,71,0.00,CLR,,0.00,WeatherDisplay:10.37,2013-04-24 06:32:00,
2013-04-24 01:37:00,50.9,41.8,30.05,NNW,347,1.6,3.5,71,0.00,CLR,,0.00,WeatherDisplay:10.37,2013-04-24 06:37:00,
2013-04-24 01:42:00,50.8,41.7,30.05,NNE,30,2.7,3.5,71,0.00,CLR,,0.00,WeatherDisplay:10.37,2013-04-24 06:42:00,
2013-04-24 01:47:00,50.8,41.7,30.05,NNW,327,1.5,2.3,71,0.00,CLR,,0.00,WeatherDisplay:10.37,2013-04-24 06:47:00,
2013-04-24 01:52:00,50.7,42.0,30.06,NW,324,1.4,2.3,72,0.00,CLR,,0.00,WeatherDisplay:10.37,2013-04-24 06:52:00,
2013-04-24 01:57:00,50.6,41.9,30.05,NNW,341,2.0,2.3,72,0.00,CLR,,0.00,WeatherDisplay:10.37,2013-04-24 06:57:00,
2013-04-24 02:02:00,50.5,41.8,30.06,North,355,2.1,3.5,72,0.00,CLR,,0.00,WeatherDisplay:10.37,2013-04-24 07:02:00,
2013-04-24 02:07:00,50.3,41.6,30.06,NNW,342,1.6,5.8,72,0.00,CLR,,0.00,WeatherDisplay:10.37,2013-04-24 07:07:00,
2013-04-24 02:12:00,50.2,41.9,30.06,NNW,344,1.2,3.5,73,0.00,CLR,,0.00,WeatherDisplay:10.37,2013-04-24 07:12:00,
2013-04-24 02:17:00,50.1,41.8,30.06,NNE,18,0.7,3.5,73,0.00,CLR,,0.00,WeatherDisplay:10.37,2013-04-24 07:17:00,
2013-04-24 02:22:00,50.0,42.7,30.06,NNW,348,2.3,4.6,76,0.00,CLR,,0.00,WeatherDisplay:10.37,2013-04-24 07:22:00,
2013-04-24 02:27:00,49.9,41.9,30.06,NNW,341,1.0,2.0,74,0.00,CLR,,0.00,WeatherDisplay:10.37,2013-04-24 07:27:00,
2013-04-24 02:32:00,49.8,41.8,30.07,NW,315,4.0,4.0,74,0.00,CLR,,0.00,WeatherDisplay:10.37,2013-04-24 07:32:00,
2013-04-24 02:37:00,49.7,41.7,30.07,NNW,345,2.7,3.5,74,0.00,CLR,,0.00,WeatherDisplay:10.37,2013-04-24 07:37:00,
2013-04-24 02:42:00,49.5,41.6,30.07,North,351,2.2,3.5,74,0.00,CLR,,0.00,WeatherDisplay:10.37,2013-04-24 07:42:00,
2013-04-24 02:47:00,49.4,41.5,30.07,NNW,344,3.7,3.7,74,0.00,CLR,,0.00,WeatherDisplay:10.37,2013-04-24 07:47:00,
2013-04-24 02:52:00,49.2,41.3,30.07,NNW,346,1.6,4.6,74,0.00,CLR,,0.00,WeatherDisplay:10.37,2013-04-24 07:52:00,
2013-04-24 02:57:00,49.0,41.4,30.07,NNW,338,6.0,6.0,75,0.00,CLR,,0.00,WeatherDisplay:10.37,2013-04-24 07:57:00,
2013-04-24 03:02:00,48.9,41.3,30.07,North,5,3.7,5.8,75,0.00,CLR,,0.00,WeatherDisplay:10.37,2013-04-24 08:02:00,
2013-04-24 03:07:00,48.7,41.1,30.07,NNW,344,8.9,9.2,75,0.00,CLR,,0.00,WeatherDisplay:10.37,2013-04-24 08:07:00,
2013-04-24 03:12:00,48.6,41.0,30.07,NNW,331,4.2,6.0,75,0.00,CLR,,0.00,WeatherDisplay:10.37,2013-04-24 08:12:00,
2013-04-24 03:17:00,48.6,41.0,30.08,NNW,344,5.6,5.8,75,0.00,CLR,,0.00,WeatherDisplay:10.37,2013-04-24 08:17:00,
2013-04-24 03:22:00,48.4,40.8,30.08,NNW,345,3.3,9.2,75,0.00,CLR,,0.00,WeatherDisplay:10.37,2013-04-24 08:22:00,
2013-04-24 03:27:00,48.4,40.8,30.08,NW,306,3.3,3.5,75,0.00,CLR,,0.00,WeatherDisplay:10.37,2013-04-24 08:27:00,
2013-04-24 03:32:00,48.3,40.7,30.08,ENE,67,2.8,5.8,75,0.00,CLR,,0.00,WeatherDisplay:10.37,2013-04-24 08:32:00,
2013-04-24 03:37:00,48.2,40.6,30.08,North,5,2.3,3.5,75,0.00,CLR,,0.00,WeatherDisplay:10.37,2013-04-24 08:37:00,
2013-04-24 03:42:00,48.0,40.5,30.08,NNW,344,5.1,9.2,75,0.00,CLR,,0.00,WeatherDisplay:10.37,2013-04-24 08:42:00,
2013-04-24 03:47:00,47.8,40.6,30.09,NNW,329,4.0,4.0,76,0.00,CLR,,0.00,WeatherDisplay:10.37,2013-04-24 08:47:00,
2013-04-24 03:52:00,47.6,40.4,30.09,NNW,347,3.0,3.5,76,0.00,CLR,,0.00,WeatherDisplay:10.37,2013-04-24 08:52:00,
2013-04-24 03:57:00,47.6,40.4,30.09,NNW,340,3.2,6.9,76,0.00,CLR,,0.00,WeatherDisplay:10.37,2013-04-24 08:57:00,
2013-04-24 04:02:00,47.4,40.2,30.09,NNE,17,2.8,4.6,76,0.00,CLR,,0.00,WeatherDisplay:10.37,2013-04-24 09:02:00,
2013-04-24 04:07:00,47.3,40.1,30.09,North,5,2.0,6.0,76,0.00,CLR,,0.00,WeatherDisplay:10.37,2013-04-24 09:07:00,
2013-04-24 04:12:00,47.2,40.0,30.10,North,355,2.4,4.6,76,0.00,CLR,,0.00,WeatherDisplay:10.37,2013-04-24 09:12:00,
2013-04-24 04:17:00,47.2,40.0,30.10,North,360,4.2,4.6,76,0.00,CLR,,0.00,WeatherDisplay:10.37,2013-04-24 09:17:00,
2013-04-24 04:22:00,47.1,39.9,30.10,NNE,26,1.8,2.3,76,0.00,CLR,,0.00,WeatherDisplay:10.37,2013-04-24 09:22:00,
2013-04-24 04:27:00,47.0,39.8,30.10,NNW,342,3.7,8.1,76,0.00,CLR,,0.00,WeatherDisplay:10.37,2013-04-24 09:27:00,
2013-04-24 04:32:00,46.8,39.3,30.11,NW,311,4.0,6.9,75,0.00,CLR,,0.00,WeatherDisplay:10.37,2013-04-24 09:32:00,
2013-04-24 04:37:00,46.6,39.1,30.11,NNW,342,2.9,9.2,75,0.00,CLR,,0.00,WeatherDisplay:10.37,2013-04-24 09:37:00,
2013-04-24 04:42:00,46.5,39.0,30.11,North,349,3.6,7.0,75,0.00,CLR,,0.00,WeatherDisplay:10.37,2013-04-24 09:42:00,
2013-04-24 04:47:00,46.4,38.9,30.11,WNW,296,6.4,8.1,75,0.00,CLR,,0.00,WeatherDisplay:10.37,2013-04-24 09:47:00,
2013-04-24 04:52:00,46.4,38.9,30.11,North,355,3.4,4.0,75,0.00,CLR,,0.00,WeatherDisplay:10.37,2013-04-24 09:52:00,
2013-04-24 04:57:00,46.3,38.8,30.10,NW,324,1.1,3.5,75,0.00,CLR,,0.00,WeatherDisplay:10.37,2013-04-24 09:57:00,
2013-04-24 05:02:00,46.3,38.8,30.10,North,360,2.3,2.3,75,0.00,CLR,,0.00,WeatherDisplay:10.37,2013-04-24 10:02:00,
2013-04-24 05:07:00,46.3,38.8,30.10,NNW,338,1.7,3.5,75,0.00,CLR,,0.00,WeatherDisplay:10.37,2013-04-24 10:07:00,
2013-04-24 05:12:00,46.3,38.8,30.09,NNW,343,0.0,2.3,75,0.00,CLR,,0.00,WeatherDisplay:10.37,2013-04-24 10:12:00,
2013-04-24 05:17:00,46.4,39.2,30.10,NE,40,0.7,2.0,76,0.00,CLR,,0.00,WeatherDisplay:10.37,2013-04-24 10:17:00,
2013-04-24 05:22:00,46.5,39.3,30.10,North,355,0.4,3.5,76,0.00,CLR,,0.00,WeatherDisplay:10.37,2013-04-24 10:22:00,
2013-04-24 05:27:00,46.5,39.3,30.10,NNE,19,1.1,3.5,76,0.00,CLR,,0.00,WeatherDisplay:10.37,2013-04-24 10:27:00,
2013-04-24 05:32:00,46.6,39.4,30.10,NNW,344,3.0,3.5,76,0.00,CLR,,0.00,WeatherDisplay:10.37,2013-04-24 10:32:00,
2013-04-24 05:37:00,46.7,39.5,30.11,NNW,340,3.4,5.0,76,0.00,CLR,,0.00,WeatherDisplay:10.37,2013-04-24 10:37:00,
2013-04-24 05:42:00,46.8,39.3,30.11,North,360,1.0,3.5,75,0.00,CLR,,0.00,WeatherDisplay:10.37,2013-04-24 10:42:00,
2013-04-24 05:47:00,46.9,39.4,30.10,NNW,335,2.7,5.8,75,0.00,CLR,,0.00,WeatherDisplay:10.37,2013-04-24 10:47:00,
2013-04-24 05:52:00,46.9,39.0,30.11,NNE,24,2.2,3.5,74,0.00,CLR,,0.00,WeatherDisplay:10.37,2013-04-24 10:52:00,
2013-04-24 05:57:00,46.8,38.9,30.12,North,355,1.6,4.6,74,0.00,CLR,,0.00,WeatherDisplay:10.37,2013-04-24 10:57:00,
2013-04-24 06:02:00,46.8,38.9,30.11,NNE,15,3.0,4.6,74,0.00,CLR,,0.00,WeatherDisplay:10.37,2013-04-24 11:02:00,
2013-04-24 06:07:00,46.8,38.6,30.12,WNW,298,3.3,6.0,73,0.00,CLR,,0.00,WeatherDisplay:10.37,2013-04-24 11:07:00,
2013-04-24 06:12:00,46.9,38.7,30.12,North,355,1.6,2.3,73,0.00,CLR,,0.00,WeatherDisplay:10.37,2013-04-24 11:12:00,
2013-04-24 06:17:00,46.9,38.7,30.13,NNW,348,4.0,5.0,73,0.00,CLR,,0.00,WeatherDisplay:10.37,2013-04-24 11:17:00,
2013-04-24 06:22:00,46.8,38.6,30.12,NNW,342,4.9,4.9,73,0.00,CLR,,0.00,WeatherDisplay:10.37,2013-04-24 11:22:00,
2013-04-24 06:27:00,46.8,38.6,30.13,NNE,13,1.4,3.0,73,0.00,CLR,,0.00,WeatherDisplay:10.37,2013-04-24 11:27:00,
2013-04-24 06:32:00,46.7,38.1,30.13,NW,324,5.2,10.4,72,0.00,CLR,,0.00,WeatherDisplay:10.37,2013-04-24 11:32:00,
2013-04-24 06:37:00,46.6,38.1,30.12,NNE,20,4.3,6.9,72,0.00,CLR,,0.00,WeatherDisplay:10.37,2013-04-24 11:37:00,
2013-04-24 06:42:00,46.6,38.1,30.12,NW,322,2.3,3.5,72,0.00,CLR,,0.00,WeatherDisplay:10.37,2013-04-24 11:42:00,
2013-04-24 06:47:00,46.5,38.0,30.12,NNW,345,1.6,3.5,72,0.00,CLR,,0.00,WeatherDisplay:10.37,2013-04-24 11:47:00,
2013-04-24 06:52:00,46.5,38.0,30.12,North,355,5.2,5.2,72,0.00,CLR,,0.00,WeatherDisplay:10.37,2013-04-24 11:52:00,
2013-04-24 06:57:00,46.5,38.0,30.12,North,350,3.3,3.5,72,0.00,CLR,,0.00,WeatherDisplay:10.37,2013-04-24 11:57:00,
2013-04-24 07:02:00,46.5,38.0,30.13,North,355,2.0,3.5,72,0.00,CLR,,0.00,WeatherDisplay:10.37,2013-04-24 12:02:00,
2013-04-24 07:07:00,46.6,37.7,30.14,North,360,3.4,6.9,71,0.00,CLR,,0.00,WeatherDisplay:10.37,2013-04-24 12:07:00,
2013-04-24 07:12:00,46.6,37.7,30.14,NW,322,1.8,2.3,71,0.00,CLR,,0.00,WeatherDisplay:10.37,2013-04-24 12:12:00,
2013-04-24 07:17:00,46.6,37.7,30.14,North,355,2.1,2.1,71,0.00,CLR,,0.00,WeatherDisplay:10.37,2013-04-24 12:17:00,
2013-04-24 07:22:00,46.7,37.8,30.15,North,355,2.5,4.6,71,0.00,CLR,,0.00,WeatherDisplay:10.37,2013-04-24 12:22:00,
2013-04-24 07:27:00,46.6,37.3,30.15,NNW,347,1.5,3.5,70,0.00,CLR,,0.00,WeatherDisplay:10.37,2013-04-24 12:27:00,
2013-04-24 07:32:00,46.6,37.3,30.15,North,349,3.4,7.0,70,0.00,CLR,,0.00,WeatherDisplay:10.37,2013-04-24 12:32:00,
2013-04-24 07:37:00,46.6,37.3,30.15,North,350,0.7,1.2,70,0.00,CLR,,0.00,WeatherDisplay:10.37,2013-04-24 12:37:00,
2013-04-24 07:42:00,46.6,37.3,30.15,North,355,3.3,4.6,70,0.00,CLR,,0.00,WeatherDisplay:10.37,2013-04-24 12:42:00,
2013-04-24 07:47:00,46.6,37.3,30.15,NW,326,1.3,3.5,70,0.00,CLR,,0.00,WeatherDisplay:10.37,2013-04-24 12:47:00,
2013-04-24 07:52:00,46.7,37.4,30.16,WNW,296,0.6,1.2,70,0.00,CLR,,0.00,WeatherDisplay:10.37,2013-04-24 12:52:00,
2013-04-24 07:57:00,46.7,37.1,30.16,NNW,346,2.6,2.6,69,0.00,CLR,,0.00,WeatherDisplay:10.37,2013-04-24 12:57:00,
2013-04-24 08:02:00,46.7,36.7,30.16,North,355,2.8,3.5,68,0.00,CLR,,0.00,WeatherDisplay:10.37,2013-04-24 13:02:00,
2013-04-24 08:07:00,46.7,36.7,30.16,NNE,19,3.3,3.5,68,0.00,CLR,,0.00,WeatherDisplay:10.37,2013-04-24 13:07:00,
2013-04-24 08:12:00,46.7,36.3,30.15,NNE,25,2.5,3.5,67,0.00,CLR,,0.00,WeatherDisplay:10.37,2013-04-24 13:12:00,
2013-04-24 08:17:00,46.7,36.3,30.16,North,5,2.3,4.6,67,0.00,CLR,,0.00,WeatherDisplay:10.37,2013-04-24 13:17:00,
2013-04-24 08:22:00,46.7,36.3,30.16,NNW,346,1.3,2.3,67,0.00,CLR,,0.00,WeatherDisplay:10.37,2013-04-24 13:22:00,
2013-04-24 08:27:00,46.7,35.9,30.16,North,5,4.0,6.9,66,0.00,CLR,,0.00,WeatherDisplay:10.37,2013-04-24 13:27:00,
2013-04-24 08:32:00,46.5,35.7,30.16,North,349,3.1,3.5,66,0.00,CLR,,0.00,WeatherDisplay:10.37,2013-04-24 13:32:00,
2013-04-24 08:37:00,46.5,36.1,30.16,West,269,2.4,8.0,67,0.00,CLR,,0.00,WeatherDisplay:10.37,2013-04-24 13:37:00,
2013-04-24 08:42:00,46.5,35.7,30.16,NNW,338,3.4,5.0,66,0.00,CLR,,0.00,WeatherDisplay:10.37,2013-04-24 13:42:00,
2013-04-24 08:47:00,46.7,35.9,30.17,NNE,24,1.2,4.6,66,0.00,CLR,,0.00,WeatherDisplay:10.37,2013-04-24 13:47:00,
2013-04-24 08:52:00,46.8,36.4,30.17,NNW,341,2.4,3.5,67,0.00,CLR,,0.00,WeatherDisplay:10.37,2013-04-24 13:52:00,
2013-04-24 08:57:00,46.9,36.5,30.16,North,351,0.7,3.0,67,0.00,CLR,,0.00,WeatherDisplay:10.37,2013-04-24 13:57:00,
2013-04-24 09:02:00,47.0,36.2,30.17,NNE,20,1.5,3.5,66,0.00,CLR,,0.00,WeatherDisplay:10.37,2013-04-24 14:02:00,
2013-04-24 09:07:00,47.1,36.3,30.17,NNW,348,4.2,4.6,66,0.00,CLR,,0.00,WeatherDisplay:10.37,2013-04-24 14:07:00,
2013-04-24 09:12:00,47.2,36.4,30.17,WNW,300,3.1,3.5,66,0.00,CLR,,0.00,WeatherDisplay:10.37,2013-04-24 14:12:00,
2013-04-24 09:17:00,47.3,36.1,30.18,North,9,3.8,7.0,65,0.00,CLR,,0.00,WeatherDisplay:10.37,2013-04-24 14:17:00,
2013-04-24 09:22:00,47.3,36.1,30.18,NNW,336,2.4,3.5,65,0.00,CLR,,0.00,WeatherDisplay:10.37,2013-04-24 14:22:00,
2013-04-24 09:27:00,47.3,36.1,30.17,North,355,3.1,5.8,65,0.00,CLR,,0.00,WeatherDisplay:10.37,2013-04-24 14:27:00,
2013-04-24 09:32:00,47.3,36.1,30.18,North,351,2.4,5.8,65,0.00,CLR,,0.00,WeatherDisplay:10.37,2013-04-24 14:32:00,
2013-04-24 09:37:00,47.4,36.2,30.18,NNW,348,4.4,6.0,65,0.00,CLR,,0.00,WeatherDisplay:10.37,2013-04-24 14:37:00,
2013-04-24 09:42:00,47.6,36.4,30.18,NNE,24,3.0,5.8,65,0.00,CLR,,0.00,WeatherDisplay:10.37,2013-04-24 14:42:00,
2013-04-24 09:47:00,47.8,36.2,30.18,NNW,348,3.4,4.6,64,0.00,CLR,,0.00,WeatherDisplay:10.37,2013-04-24 14:47:00,
2013-04-24 09:52:00,47.9,36.3,30.18,NNE,24,4.8,4.8,64,0.00,CLR,,0.00,WeatherDisplay:10.37,2013-04-24 14:52:00,
2013-04-24 09:57:00,47.9,35.9,30.18,NW,323,3.0,3.5,63,0.00,CLR,,0.00,WeatherDisplay:10.37,2013-04-24 14:57:00,
2013-04-24 10:02:00,48.0,36.0,30.18,North,355,3.8,8.1,63,0.00,CLR,,0.00,WeatherDisplay:10.37,2013-04-24 15:02:00,
2013-04-24 10:09:00,48.1,35.7,30.18,NW,304,3.8,7.0,62,0.00,CLR,,0.00,WeatherDisplay:10.37,2013-04-24 15:09:00,
2013-04-24 10:14:00,48.3,35.9,30.18,NW,323,4.5,5.8,62,0.00,CLR,,0.00,WeatherDisplay:10.37,2013-04-24 15:14:00,
2013-04-24 10:19:00,48.5,36.5,30.19,NW,321,1.0,2.0,63,0.00,CLR,,0.00,WeatherDisplay:10.37,2013-04-24 15:19:00,
2013-04-24 10:24:00,48.8,36.4,30.18,NNE,28,4.3,4.6,62,0.00,CLR,,0.00,WeatherDisplay:10.37,2013-04-24 15:24:00,
2013-04-24 10:29:00,48.9,36.0,30.18,NNW,346,0.5,1.2,61,0.00,CLR,,0.00,WeatherDisplay:10.37,2013-04-24 15:29:00,
2013-04-24 10:34:00,49.1,36.2,30.17,North,355,4.0,4.6,61,0.00,CLR,,0.00,WeatherDisplay:10.37,2013-04-24 15:34:00,
2013-04-24 10:39:00,49.2,36.3,30.18,ENE,59,3.3,5.8,61,0.00,CLR,,0.00,WeatherDisplay:10.37,2013-04-24 15:39:00,
2013-04-24 10:44:00,49.4,36.1,30.17,NW,312,2.6,3.5,60,0.00,CLR,,0.00,WeatherDisplay:10.37,2013-04-24 15:44:00,
2013-04-24 10:49:00,49.7,36.4,30.17,NNW,337,2.7,3.5,60,0.00,CLR,,0.00,WeatherDisplay:10.37,2013-04-24 15:49:00,
2013-04-24 10:54:00,50.1,36.7,30.18,NNW,340,2.0,3.5,60,0.00,CLR,,0.00,WeatherDisplay:10.37,2013-04-24 15:54:00,
2013-04-24 10:59:00,50.7,36.5,30.18,NNE,16,3.2,5.8,58,0.00,CLR,,0.00,WeatherDisplay:10.37,2013-04-24 15:59:00,
2013-04-24 11:04:00,51.1,36.8,30.17,NE,46,3.3,3.5,58,0.00,CLR,,0.00,WeatherDisplay:10.37,2013-04-24 16:04:00,
2013-04-24 11:09:00,51.8,36.6,30.18,SW,223,4.0,4.6,56,0.00,CLR,,0.00,WeatherDisplay:10.37,2013-04-24 16:09:00,
2013-04-24 11:14:00,51.8,35.7,30.18,NNE,14,4.1,5.8,54,0.00,CLR,,0.00,WeatherDisplay:10.37,2013-04-24 16:14:00,
2013-04-24 11:19:00,52.0,35.9,30.17,NNW,341,2.7,3.5,54,0.00,CLR,,0.00,WeatherDisplay:10.37,2013-04-24 16:19:00,
2013-04-24 11:24:00,52.5,36.3,30.17,NW,319,3.5,6.9,54,0.00,CLR,,0.00,WeatherDisplay:10.37,2013-04-24 16:24:00,
2013-04-24 11:29:00,53.2,36.5,30.18,North,350,2.2,8.1,53,0.00,CLR,,0.00,WeatherDisplay:10.37,2013-04-24 16:29:00,
2013-04-24 11:34:00,53.7,36.5,30.17,North,355,3.7,5.8,52,0.00,CLR,,0.00,WeatherDisplay:10.37,2013-04-24 16:34:00,
2013-04-24 11:39:00,54.1,36.4,30.17,NNW,347,1.5,4.6,51,0.00,CLR,,0.00,WeatherDisplay:10.37,2013-04-24 16:39:00,
2013-04-24 11:44:00,54.8,36.5,30.17,NW,312,4.0,6.9,50,0.00,CLR,,0.00,WeatherDisplay:10.37,2013-04-24 16:44:00,
2013-04-24 11:49:00,55.2,36.4,30.17,North,355,5.8,6.9,49,0.00,CLR,,0.00,WeatherDisplay:10.37,2013-04-24 16:49:00,
2013-04-24 11:54:00,55.3,36.5,30.17,NE,52,5.0,9.2,49,0.00,CLR,,0.00,WeatherDisplay:10.37,2013-04-24 16:54:00,
2013-04-24 11:59:00,55.5,36.6,30.18,North,355,4.5,4.5,49,0.00,CLR,,0.00,WeatherDisplay:10.37,2013-04-24 16:59:00,
2013-04-24 12:04:00,56.5,37.0,30.18,NE,36,4.2,6.9,48,0.00,CLR,,0.00,WeatherDisplay:10.37,2013-04-24 17:04:00,
2013-04-24 12:09:00,57.6,38.0,30.18,NNW,329,3.4,9.2,48,0.00,CLR,,0.00,WeatherDisplay:10.37,2013-04-24 17:09:00,
2013-04-24 12:14:00,58.2,37.5,30.18,NW,326,2.5,6.9,46,0.00,CLR,,0.00,WeatherDisplay:10.37,2013-04-24 17:14:00,
2013-04-24 12:19:00,58.2,36.9,30.18,NNW,338,1.3,2.3,45,0.00,CLR,,0.00,WeatherDisplay:10.37,2013-04-24 17:19:00,
2013-04-24 12:24:00,58.2,36.9,30.18,North,5,5.1,5.8,45,0.00,CLR,,0.00,WeatherDisplay:10.37,2013-04-24 17:24:00,
2013-04-24 12:29:00,57.9,36.7,30.17,NNW,346,3.0,3.5,45,0.00,CLR,,0.00,WeatherDisplay:10.37,2013-04-24 17:29:00,
2013-04-24 12:34:00,57.7,36.5,30.17,NNE,26,5.7,5.8,45,0.00,CLR,,0.00,WeatherDisplay:10.37,2013-04-24 17:34:00,
2013-04-24 12:39:00,57.8,37.7,30.17,West,259,2.6,6.0,47,0.00,CLR,,0.00,WeatherDisplay:10.37,2013-04-24 17:39:00,
2013-04-24 12:44:00,58.1,36.9,30.17,NNE,23,2.9,3.5,45,0.00,CLR,,0.00,WeatherDisplay:10.37,2013-04-24 17:44:00,
2013-04-24 12:49:00,58.5,38.3,30.17,North,355,4.1,8.0,47,0.00,CLR,,0.00,WeatherDisplay:10.37,2013-04-24 17:49:00,
2013-04-24 12:54:00,58.8,36.9,30.17,ENE,57,2.5,5.8,44,0.00,CLR,,0.00,WeatherDisplay:10.37,2013-04-24 17:54:00,
2013-04-24 12:59:00,58.9,37.0,30.17,NNE,22,2.0,8.1,44,0.00,CLR,,0.00,WeatherDisplay:10.37,2013-04-24 17:59:00,
2013-04-24 13:04:00,59.1,37.8,30.17,North,360,2.0,4.6,45,0.00,CLR,,0.00,WeatherDisplay:10.37,2013-04-24 18:04:00,
2013-04-24 13:09:00,59.5,37.6,30.16,NNE,27,3.2,6.9,44,0.00,CLR,,0.00,WeatherDisplay:10.37,2013-04-24 18:09:00,
2013-04-24 13:14:00,60.0,38.0,30.16,NW,319,2.2,6.9,44,0.00,CLR,,0.00,WeatherDisplay:10.37,2013-04-24 18:14:00,
2013-04-24 13:19:00,60.5,38.5,30.16,North,10,1.6,2.3,44,0.00,CLR,,0.00,WeatherDisplay:10.37,2013-04-24 18:19:00,
2013-04-24 13:24:00,61.2,38.5,30.15,NNW,339,3.0,3.5,43,0.00,CLR,,0.00,WeatherDisplay:10.37,2013-04-24 18:24:00,
2013-04-24 13:29:00,61.6,38.9,30.16,ENE,65,3.8,3.8,43,0.00,CLR,,0.00,WeatherDisplay:10.37,2013-04-24 18:29:00,
2013-04-24 13:34:00,61.5,38.2,30.15,SSW,212,1.8,2.3,42,0.00,CLR,,0.00,WeatherDisplay:10.37,2013-04-24 18:34:00,
2013-04-24 13:39:00,61.6,38.3,30.15,ENE,72,1.4,4.0,42,0.00,CLR,,0.00,WeatherDisplay:10.37,2013-04-24 18:39:00,
2013-04-24 13:44:00,61.6,38.3,30.15,NW,312,0.6,3.5,42,0.00,CLR,,0.00,WeatherDisplay:10.37,2013-04-24 18:44:00,
2013-04-24 13:49:00,61.3,38.0,30.15,NE,36,3.5,4.6,42,0.00,CLR,,0.00,WeatherDisplay:10.37,2013-04-24 18:49:00,
2013-04-24 13:54:00,60.9,37.6,30.15,East,98,1.4,5.0,42,0.00,CLR,,0.00,WeatherDisplay:10.37,2013-04-24 18:54:00,
2013-04-24 13:59:00,60.5,37.3,30.15,NNW,331,1.4,4.0,42,0.00,CLR,,0.00,WeatherDisplay:10.37,2013-04-24 18:59:00,
2013-04-24 14:04:00,60.5,37.9,30.15,ENE,61,1.8,3.5,43,0.00,CLR,,0.00,WeatherDisplay:10.37,2013-04-24 19:04:00,
2013-04-24 14:09:00,60.3,37.7,30.15,North,360,2.8,3.5,43,0.00,CLR,,0.00,WeatherDisplay:10.37,2013-04-24 19:09:00,
2013-04-24 14:14:00,60.4,38.4,30.15,NNE,23,0.0,0.0,44,0.00,CLR,,0.00,WeatherDisplay:10.37,2013-04-24 19:14:00,
2013-04-24 14:19:00,60.6,38.0,30.15,NNE,15,2.3,5.8,43,0.00,CLR,,0.00,WeatherDisplay:10.37,2013-04-24 19:19:00,
2013-04-24 14:24:00,60.6,38.0,30.15,North,5,2.2,5.0,43,0.00,CLR,,0.00,WeatherDisplay:10.37,2013-04-24 19:24:00,
2013-04-24 14:29:00,60.5,37.9,30.15,NNE,33,1.5,5.8,43,0.00,CLR,,0.00,WeatherDisplay:10.37,2013-04-24 19:29:00,
2013-04-24 14:34:00,60.4,38.4,30.15,ENE,59,2.8,3.5,44,0.00,CLR,,0.00,WeatherDisplay:10.37,2013-04-24 19:34:00,
2013-04-24 14:39:00,60.3,38.3,30.14,NNW,344,0.8,1.2,44,0.00,CLR,,0.00,WeatherDisplay:10.37,2013-04-24 19:39:00,
2013-04-24 14:44:00,60.4,37.8,30.15,North,360,0.0,0.0,43,0.00,CLR,,0.00,WeatherDisplay:10.37,2013-04-24 19:44:00,
2013-04-24 14:49:00,60.2,38.2,30.15,North,5,1.4,3.5,44,0.00,CLR,,0.00,WeatherDisplay:10.37,2013-04-24 19:49:00,
2013-04-24 14:54:00,60.2,38.2,30.14,North,9,1.3,3.5,44,0.00,CLR,,0.00,WeatherDisplay:10.37,2013-04-24 19:54:00,
2013-04-24 14:59:00,60.1,37.5,30.14,NE,45,0.8,3.5,43,0.00,CLR,,0.00,WeatherDisplay:10.37,2013-04-24 19:59:00,
2013-04-24 15:04:00,60.1,38.1,30.14,NNW,338,1.9,3.5,44,0.00,CLR,,0.00,WeatherDisplay:10.37,2013-04-24 20:04:00,
2013-04-24 15:09:00,60.2,38.2,30.14,NNW,335,1.3,2.3,44,0.00,CLR,,0.00,WeatherDisplay:10.37,2013-04-24 20:09:00,
2013-04-24 15:14:00,60.3,38.9,30.14,NNE,32,0.2,2.3,45,0.00,CLR,,0.00,WeatherDisplay:10.37,2013-04-24 20:14:00,
2013-04-24 15:19:00,60.3,38.3,30.14,North,5,1.4,3.5,44,0.00,CLR,,0.00,WeatherDisplay:10.37,2013-04-24 20:19:00,
2013-04-24 15:24:00,60.4,38.4,30.14,NNW,348,4.4,4.6,44,0.00,CLR,,0.00,WeatherDisplay:10.37,2013-04-24 20:24:00,
2013-04-24 15:29:00,60.5,38.5,30.14,NNW,345,1.1,3.5,44,0.00,CLR,,0.00,WeatherDisplay:10.37,2013-04-24 20:29:00,
2013-04-24 15:34:00,60.5,38.5,30.14,NE,34,1.0,1.2,44,0.00,CLR,,0.00,WeatherDisplay:10.37,2013-04-24 20:34:00,
2013-04-24 15:39:00,60.6,38.6,30.14,NE,41,0.1,2.3,44,0.00,CLR,,0.00,WeatherDisplay:10.37,2013-04-24 20:39:00,
2013-04-24 15:44:00,60.8,38.7,30.14,NNE,12,0.7,2.3,44,0.00,CLR,,0.00,WeatherDisplay:10.37,2013-04-24 20:44:00,
2013-04-24 15:49:00,60.8,38.1,30.14,ENE,73,1.5,4.0,43,0.00,CLR,,0.00,WeatherDisplay:10.37,2013-04-24 20:49:00,
2013-04-24 15:54:00,60.8,39.3,30.13,ENE,77,0.3,1.2,45,0.00,CLR,,0.00,WeatherDisplay:10.37,2013-04-24 20:54:00,
2013-04-24 15:59:00,60.8,39.3,30.13,NE,46,0.2,5.0,45,0.00,CLR,,0.00,WeatherDisplay:10.37,2013-04-24 20:59:00,
2013-04-24 16:04:00,60.9,39.4,30.12,NE,50,0.7,1.2,45,0.00,CLR,,0.00,WeatherDisplay:10.37,2013-04-24 21:04:00,
2013-04-24 16:09:00,61.0,39.5,30.12,NE,51,1.9,6.0,45,0.00,CLR,,0.00,WeatherDisplay:10.37,2013-04-24 21:09:00,
2013-04-24 16:14:00,61.0,38.9,30.12,NNE,15,3.0,3.5,44,0.00,CLR,,0.00,WeatherDisplay:10.37,2013-04-24 21:14:00,
2013-04-24 16:19:00,61.1,38.4,30.12,North,5,2.0,3.0,43,0.00,CLR,,0.00,WeatherDisplay:10.37,2013-04-24 21:19:00,
2013-04-24 16:24:00,61.1,39.0,30.12,ENE,59,0.7,2.3,44,0.00,CLR,,0.00,WeatherDisplay:10.37,2013-04-24 21:24:00,
2013-04-24 16:29:00,61.2,39.1,30.13,East,90,2.1,4.6,44,0.00,CLR,,0.00,WeatherDisplay:10.37,2013-04-24 21:29:00,
2013-04-24 16:34:00,61.2,39.7,30.13,ESE,107,0.7,4.6,45,0.00,CLR,,0.00,WeatherDisplay:10.37,2013-04-24 21:34:00,
2013-04-24 16:39:00,61.3,39.8,30.13,ENE,57,0.4,2.3,45,0.00,CLR,,0.00,WeatherDisplay:10.37,2013-04-24 21:39:00,
2013-04-24 16:44:00,61.4,39.3,30.12,North,5,0.0,2.3,44,0.00,CLR,,0.00,WeatherDisplay:10.37,2013-04-24 21:44:00,
2013-04-24 16:49:00,61.4,39.3,30.13,ENE,59,0.1,1.2,44,0.00,CLR,,0.00,WeatherDisplay:10.37,2013-04-24 21:49:00,
2013-04-24 16:54:00,61.4,39.3,30.12,East,98,0.7,3.5,44,0.00,CLR,,0.00,WeatherDisplay:10.37,2013-04-24 21:54:00,
2013-04-24 16:59:00,61.4,38.7,30.13,NNW,327,3.5,3.5,43,0.00,CLR,,0.00,WeatherDisplay:10.37,2013-04-24 21:59:00,
2013-04-24 17:04:00,61.5,39.4,30.12,East,80,1.2,4.0,44,0.00,CLR,,0.00,WeatherDisplay:10.37,2013-04-24 22:04:00,
2013-04-24 17:09:00,61.4,38.7,30.12,NE,54,1.2,0.0,43,0.00,CLR,,0.00,WeatherDisplay:10.37,2013-04-24 22:09:00,
2013-04-24 17:14:00,61.4,39.3,30.12,NE,55,0.1,0.0,44,0.00,CLR,,0.00,WeatherDisplay:10.37,2013-04-24 22:14:00,
2013-04-24 17:19:00,61.4,38.7,30.12,East,82,1.2,2.3,43,0.00,CLR,,0.00,WeatherDisplay:10.37,2013-04-24 22:19:00,
2013-04-24 17:24:00,61.3,38.6,30.12,ENE,63,0.7,1.2,43,0.00,CLR,,0.00,WeatherDisplay:10.37,2013-04-24 22:24:00,
2013-04-24 17:29:00,61.3,38.6,30.12,SSW,192,0.1,1.2,43,0.00,CLR,,0.00,WeatherDisplay:10.37,2013-04-24 22:29:00,
2013-04-24 17:34:00,61.4,39.3,30.12,East,101,1.7,4.6,44,0.00,CLR,,0.00,WeatherDisplay:10.37,2013-04-24 22:34:00,
2013-04-24 17:39:00,61.5,39.4,30.12,ENE,71,4.0,4.0,44,0.00,CLR,,0.00,WeatherDisplay:10.37,2013-04-24 22:39:00,
2013-04-24 17:44:00,61.7,39.0,30.12,NE,53,0.5,2.3,43,0.00,CLR,,0.00,WeatherDisplay:10.37,2013-04-24 22:44:00,
2013-04-24 17:49:00,61.7,39.6,30.12,NNE,29,0.9,3.5,44,0.00,CLR,,0.00,WeatherDisplay:10.37,2013-04-24 22:49:00,
2013-04-24 17:54:00,61.6,39.5,30.12,ENE,61,0.6,3.5,44,0.00,CLR,,0.00,WeatherDisplay:10.37,2013-04-24 22:54:00,
2013-04-24 17:59:00,61.6,39.5,30.12,North,5,0.8,3.5,44,0.00,CLR,,0.00,WeatherDisplay:10.37,2013-04-24 22:59:00,
2013-04-24 18:04:00,61.6,39.5,30.12,ENE,71,0.3,1.2,44,0.00,CLR,,0.00,WeatherDisplay:10.37,2013-04-24 23:04:00,
2013-04-24 18:09:00,61.6,39.5,30.12,NE,36,0.4,3.5,44,0.00,CLR,,0.00,WeatherDisplay:10.37,2013-04-24 23:09:00,
2013-04-24 18:14:00,61.7,40.1,30.13,North,360,2.0,2.3,45,0.00,CLR,,0.00,WeatherDisplay:10.37,2013-04-24 23:14:00,
2013-04-24 18:19:00,61.8,40.2,30.12,ENE,57,0.1,1.2,45,0.00,CLR,,0.00,WeatherDisplay:10.37,2013-04-24 23:19:00,
2013-04-24 18:24:00,61.9,39.7,30.12,NE,40,0.5,1.2,44,0.00,CLR,,0.00,WeatherDisplay:10.37,2013-04-24 23:24:00,
2013-04-24 18:29:00,61.9,39.7,30.12,NNE,32,2.0,3.5,44,0.00,CLR,,0.00,WeatherDisplay:10.37,2013-04-24 23:29:00,
2013-04-24 18:34:00,61.8,39.6,30.12,ENE,71,0.3,3.5,44,0.00,CLR,,0.00,WeatherDisplay:10.37,2013-04-24 23:34:00,
2013-04-24 18:39:00,61.7,40.1,30.12,ENE,77,0.7,3.5,45,0.00,CLR,,0.00,WeatherDisplay:10.37,2013-04-24 23:39:00,
2013-04-24 18:44:00,61.7,40.1,30.12,East,84,1.0,2.3,45,0.00,CLR,,0.00,WeatherDisplay:10.37,2013-04-24 23:44:00,
2013-04-24 18:49:00,61.7,39.6,30.12,NE,48,0.6,3.0,44,0.00,CLR,,0.00,WeatherDisplay:10.37,2013-04-24 23:49:00,
2013-04-24 18:54:00,61.6,39.5,30.12,ENE,62,0.5,1.2,44,0.00,CLR,,0.00,WeatherDisplay:10.37,2013-04-24 23:54:00,
2013-04-24 18:59:00,61.6,39.5,30.12,NE,46,0.0,0.0,44,0.00,CLR,,0.00,WeatherDisplay:10.37,2013-04-24 23:59:00,
2013-04-24 19:04:00,61.5,39.9,30.12,East,99,0.0,1.2,45,0.00,CLR,,0.00,WeatherDisplay:10.37,2013-04-25 00:04:00,
2013-04-24 19:09:00,61.5,39.4,30.12,NNE,32,0.1,1.2,44,0.00,CLR,,0.00,WeatherDisplay:10.37,2013-04-25 00:09:00,
2013-04-24 19:14:00,61.4,39.9,30.12,ENE,68,0.3,3.5,45,0.00,CLR,,0.00,WeatherDisplay:10.37,2013-04-25 00:14:00,
2013-04-24 19:19:00,61.3,39.2,30.12,ENE,65,2.5,3.5,44,0.00,CLR,,0.00,WeatherDisplay:10.37,2013-04-25 00:19:00,
2013-04-24 19:24:00,61.2,39.7,30.13,ENE,65,0.0,0.0,45,0.00,CLR,,0.00,WeatherDisplay:10.37,2013-04-25 00:24:00,
2013-04-24 19:29:00,61.1,40.1,30.13,NNE,29,0.0,2.3,46,0.00,CLR,,0.00,WeatherDisplay:10.37,2013-04-25 00:29:00,
2013-04-24 19:34:00,60.9,40.0,30.13,NE,48,0.0,1.2,46,0.00,CLR,,0.00,WeatherDisplay:10.37,2013-04-25 00:34:00,
2013-04-24 19:39:00,60.7,39.8,30.13,NE,56,0.3,1.2,46,0.00,CLR,,0.00,WeatherDisplay:10.37,2013-04-25 00:39:00,
2013-04-24 19:44:00,60.5,39.6,30.13,East,99,0.0,0.0,46,0.00,CLR,,0.00,WeatherDisplay:10.37,2013-04-25 00:44:00,
2013-04-24 19:49:00,60.3,39.4,30.13,East,99,0.1,1.2,46,0.00,CLR,,0.00,WeatherDisplay:10.37,2013-04-25 00:49:00,
2013-04-24 19:54:00,60.2,39.9,30.13,ESE,105,0.0,0.0,47,0.00,CLR,,0.00,WeatherDisplay:10.37,2013-04-25 00:54:00,
2013-04-24 19:59:00,60.0,39.7,30.13,East,100,0.0,0.0,47,0.00,CLR,,0.00,WeatherDisplay:10.37,2013-04-25 00:59:00,
2013-04-24 20:04:00,59.9,40.1,30.14,East,100,0.0,0.0,48,0.00,CLR,,0.00,WeatherDisplay:10.37,2013-04-25 01:04:00,
2013-04-24 20:09:00,59.6,39.9,30.14,East,100,0.0,0.0,48,0.00,CLR,,0.00,WeatherDisplay:10.37,2013-04-25 01:09:00,
2013-04-24 20:14:00,59.6,40.4,30.14,East,100,0.0,0.0,49,0.00,CLR,,0.00,WeatherDisplay:10.37,2013-04-25 01:14:00,
2013-04-24 20:19:00,59.4,40.7,30.14,East,100,0.0,0.0,50,0.00,CLR,,0.00,WeatherDisplay:10.37,2013-04-25 01:19:00,
2013-04-24 20:24:00,59.2,40.6,30.15,East,100,0.0,0.0,50,0.00,CLR,,0.00,WeatherDisplay:10.37,2013-04-25 01:24:00,
2013-04-24 20:29:00,59.0,40.9,30.15,East,100,0.0,0.0,51,0.00,CLR,,0.00,WeatherDisplay:10.37,2013-04-25 01:29:00,
2013-04-24 20:34:00,58.9,41.3,30.15,East,100,0.0,0.0,52,0.00,CLR,,0.00,WeatherDisplay:10.37,2013-04-25 01:34:00,
2013-04-24 20:39:00,58.7,41.1,30.15,East,100,0.0,0.0,52,0.00,CLR,,0.00,WeatherDisplay:10.37,2013-04-25 01:39:00,
2013-04-24 20:44:00,58.5,40.9,30.16,East,100,0.0,0.0,52,0.00,CLR,,0.00,WeatherDisplay:10.37,2013-04-25 01:44:00,
2013-04-24 20:49:00,58.3,40.2,30.16,East,100,0.0,0.0,51,0.00,CLR,,0.00,WeatherDisplay:10.37,2013-04-25 01:49:00,
2013-04-24 20:54:00,58.2,40.6,30.16,East,100,0.0,0.0,52,0.00,CLR,,0.00,WeatherDisplay:10.37,2013-04-25 01:54:00,
2013-04-24 20:59:00,58.0,40.5,30.16,East,100,0.0,0.0,52,0.00,CLR,,0.00,WeatherDisplay:10.37,2013-04-25 01:59:00,
2013-04-24 21:04:00,58.0,40.5,30.16,East,100,0.0,0.0,52,0.00,CLR,,0.00,WeatherDisplay:10.37,2013-04-25 02:04:00,
2013-04-24 21:09:00,57.9,40.4,30.17,East,100,0.0,0.0,52,0.00,CLR,,0.00,WeatherDisplay:10.37,2013-04-25 02:09:00,
2013-04-24 21:14:00,57.9,40.4,30.17,East,100,0.0,0.0,52,0.00,CLR,,0.00,WeatherDisplay:10.37,2013-04-25 02:14:00,
2013-04-24 21:19:00,57.8,40.3,30.17,East,100,0.0,0.0,52,0.00,CLR,,0.00,WeatherDisplay:10.37,2013-04-25 02:19:00,
2013-04-24 21:24:00,57.8,40.8,30.17,East,100,0.0,0.0,53,0.00,CLR,,0.00,WeatherDisplay:10.37,2013-04-25 02:24:00,
2013-04-24 21:29:00,57.8,40.8,30.17,East,100,0.0,0.0,53,0.00,CLR,,0.00,WeatherDisplay:10.37,2013-04-25 02:29:00,
2013-04-24 21:34:00,57.8,40.8,30.17,East,100,0.0,0.0,53,0.00,CLR,,0.00,WeatherDisplay:10.37,2013-04-25 02:34:00,
2013-04-24 21:39:00,57.8,40.8,30.17,East,100,0.0,0.0,53,0.00,CLR,,0.00,WeatherDisplay:10.37,2013-04-25 02:39:00,
2013-04-24 21:44:00,57.8,40.8,30.18,East,100,0.0,1.2,53,0.00,CLR,,0.00,WeatherDisplay:10.37,2013-04-25 02:44:00,
2013-04-24 21:49:00,57.7,40.7,30.18,East,80,0.5,1.2,53,0.00,CLR,,0.00,WeatherDisplay:10.37,2013-04-25 02:49:00,
2013-04-24 21:54:00,57.7,40.7,30.18,East,80,0.0,0.0,53,0.00,CLR,,0.00,WeatherDisplay:10.37,2013-04-25 02:54:00,
2013-04-24 21:59:00,57.8,40.8,30.18,NE,53,0.0,0.0,53,0.00,CLR,,0.00,WeatherDisplay:10.37,2013-04-25 02:59:00,
2013-04-24 22:04:00,57.8,40.8,30.18,East,87,0.1,1.2,53,0.00,CLR,,0.00,WeatherDisplay:10.37,2013-04-25 03:04:00,
2013-04-24 22:09:00,57.8,40.3,30.18,ENE,57,0.3,1.2,52,0.00,CLR,,0.00,WeatherDisplay:10.37,2013-04-25 03:09:00,
2013-04-24 22:14:00,57.8,40.3,30.19,ENE,57,0.1,1.2,52,0.00,CLR,,0.00,WeatherDisplay:10.37,2013-04-25 03:14:00,
2013-04-24 22:19:00,57.8,40.3,30.19,North,350,0.1,3.5,52,0.00,CLR,,0.00,WeatherDisplay:10.37,2013-04-25 03:19:00,
2013-04-24 22:24:00,57.9,40.9,30.19,North,5,0.7,2.3,53,0.00,CLR,,0.00,WeatherDisplay:10.37,2013-04-25 03:24:00,
2013-04-24 22:29:00,57.9,40.4,30.19,NE,50,1.9,3.5,52,0.00,CLR,,0.00,WeatherDisplay:10.37,2013-04-25 03:29:00,
2013-04-24 22:34:00,58.0,40.5,30.19,NE,43,0.4,2.3,52,0.00,CLR,,0.00,WeatherDisplay:10.37,2013-04-25 03:34:00,
2013-04-24 22:39:00,58.0,40.5,30.19,NNE,24,0.0,2.3,52,0.00,CLR,,0.00,WeatherDisplay:10.37,2013-04-25 03:39:00,
2013-04-24 22:44:00,58.0,40.5,30.19,ENE,65,0.1,1.2,52,0.00,CLR,,0.00,WeatherDisplay:10.37,2013-04-25 03:44:00,
2013-04-24 22:49:00,58.0,40.5,30.19,NNE,23,0.4,3.5,52,0.00,CLR,,0.00,WeatherDisplay:10.37,2013-04-25 03:49:00,
2013-04-24 22:54:00,58.0,40.5,30.20,ESE,123,0.0,0.0,52,0.00,CLR,,0.00,WeatherDisplay:10.37,2013-04-25 03:54:00,
2013-04-24 22:59:00,58.0,40.5,30.20,NE,51,0.0,4.0,52,0.00,CLR,,0.00,WeatherDisplay:10.37,2013-04-25 03:59:00,
2013-04-24 23:01:00,58.0,40.5,30.20,NE,46,3.1,3.5,52,0.00,CLR,,0.00,WeatherDisplay:10.37,2013-04-25 04:01:00,
2013-04-24 23:06:00,58.0,40.5,30.19,NNE,26,0.5,3.5,52,0.00,CLR,,0.00,WeatherDisplay:10.37,2013-04-25 04:06:00,
2013-04-24 23:11:00,58.0,40.5,30.19,NNE,26,0.2,1.2,52,0.00,CLR,,0.00,WeatherDisplay:10.37,2013-04-25 04:11:00,
2013-04-24 23:16:00,58.0,40.5,30.20,NNE,26,1.5,2.3,52,0.00,CLR,,0.00,WeatherDisplay:10.37,2013-04-25 04:16:00,
2013-04-24 23:21:00,58.0,40.5,30.20,ESE,103,0.0,0.0,52,0.00,CLR,,0.00,WeatherDisplay:10.37,2013-04-25 04:21:00,
2013-04-24 23:26:00,58.1,40.6,30.20,ENE,71,1.4,2.3,52,0.00,CLR,,0.00,WeatherDisplay:10.37,2013-04-25 04:26:00,
2013-04-24 23:31:00,58.1,41.0,30.21,ENE,70,0.4,2.0,53,0.00,CLR,,0.00,WeatherDisplay:10.37,2013-04-25 04:31:00,
2013-04-24 23:36:00,58.1,40.6,30.21,ENE,59,0.0,0.0,52,0.00,CLR,,0.00,WeatherDisplay:10.37,2013-04-25 04:36:00,
2013-04-24 23:41:00,58.1,41.0,30.21,ENE,59,0.0,0.0,53,0.00,CLR,,0.00,WeatherDisplay:10.37,2013-04-25 04:41:00,
2013-04-24 23:46:00,58.0,41.0,30.21,ENE,59,0.0,0.0,53,0.00,CLR,,0.00,WeatherDisplay:10.37,2013-04-25 04:46:00,
2013-04-24 23:51:00,58.0,41.0,30.22,ENE,59,0.0,0.0,53,0.00,CLR,,0.00,WeatherDisplay:10.37,2013-04-25 04:51:00,
2013-04-24 23:56:00,57.9,41.3,30.22,NE,37,0.0,0.0,54,0.00,CLR,,0.00,WeatherDisplay:10.37,2013-04-25 04:56:00,